GW0859 Weather Reports


Display with metric or nautical units.
time (UTC)temp
F
wind
direction
speed
MPH
gust
MPH
rain 1hr
in
rain 24hr
in
rain mn
in
humidity
%
barometer
mb
20260831234221 68 148 0.0 0.0 0.00 0.02 0.02 99 1019.7
20260831233218 69 148 0.0 0.0 0.00 0.02 0.02 99 1019.8
20260831232214 69 148 0.0 0.0 0.00 0.02 0.02 99 1019.6
20260831231212 69 148 0.0 1.0 0.00 0.02 0.02 99 1019.7
20260831230207 70 154 0.0 0.0 0.00 0.02 0.02 99 1019.8
20260831225207 70 154 0.0 0.0 0.00 0.02 0.02 99 1019.9
20260831224203 70 156 0.0 0.0 0.00 0.02 0.02 99 1020.0
20260831223201 70 168 0.0 0.0 0.00 0.02 0.02 99 1020.3
20260831222158 70 183 0.0 0.0 0.00 0.02 0.02 98 1020.2
20260831221154 71 179 0.0 0.0 0.00 0.02 0.02 98 1020.2
20260831220151 71 175 0.0 0.0 0.00 0.02 0.02 98 1020.2
20260831215147 71 159 0.0 1.0 0.00 0.02 0.02 97 1020.3
20260831214147 71 179 0.0 0.0 0.00 0.02 0.02 97 1020.1
20260831213143 71 175 0.0 0.0 0.00 0.02 0.02 97 1020.2
20260831212142 70 190 0.0 1.0 0.00 0.02 0.02 98 1020.2
20260831211141 71 179 0.0 1.0 0.00 0.02 0.02 98 1020.5
20260831210138 70 149 1.0 1.0 0.00 0.02 0.02 97 1020.5
20260831205133 70 171 0.0 0.0 0.00 0.02 0.02 97 1020.4
20260831204131 71 171 0.0 0.0 0.00 0.02 0.02 97 1020.5
20260831203131 71 171 0.0 0.0 0.00 0.02 0.02 98 1020.7
20260831202131 71 155 0.0 1.0 0.00 0.02 0.02 98 1020.8
20260831201131 71 150 0.0 0.0 0.00 0.02 0.02 97 1020.9
20260831200127 71 158 0.0 1.0 0.00 0.02 0.02 95 1020.8
20260831195123 72 175 0.0 0.0 0.07 0.02 0.02 96 1020.9
20260831194119 72 169 0.0 0.0 0.05 0.01 0.01 94 1020.9
20260831193114 73 177 1.0 1.0 0.00 0.00 0.00 91 1020.9
20260831192111 74 199 1.0 2.0 0.00 0.00 0.00 87 1021.2
20260831191109 74 249 3.0 3.0 0.00 0.00 0.00 85 1021.3
20260831190108 73 169 0.0 0.0 0.00 0.00 0.00 89 1021.6
20260831185106 73 40 0.0 1.0 0.00 0.00 0.00 89 1021.7
20260831184101 72 158 0.0 1.0 0.00 0.00 0.00 90 1021.6
20260831183100 71 144 0.0 0.0 0.00 0.00 0.00 92 1021.6
20260831182055 71 173 0.0 0.0 0.00 0.00 0.00 93 1021.6
20260831181055 71 227 1.0 1.0 0.00 0.00 0.00 92 1021.8
20260831180052 71 154 0.0 0.0 0.00 0.00 0.00 92 1021.8
20260831175049 72 197 0.0 1.0 0.00 0.00 0.00 90 1021.9
20260831174049 72 190 0.0 0.0 0.00 0.00 0.00 89 1022.0
20260831173044 72 201 0.0 1.0 0.00 0.00 0.00 88 1022.1
20260831172040 72 186 1.0 1.0 0.00 0.00 0.00 87 1021.8
20260831171038 72 109 1.0 1.0 0.00 0.00 0.00 88 1021.7
20260831170037 72 192 0.0 1.0 0.00 0.00 0.00 89 1021.7
20260831165033 72 172 0.0 0.0 0.00 0.00 0.00 91 1021.8
20260831164031 71 119 0.0 0.0 0.00 0.00 0.00 90 1021.9
20260831163027 71 118 0.0 0.0 0.00 0.00 0.00 90 1021.9
20260831162024 72 113 0.0 0.0 0.00 0.00 0.00 90 1021.9
20260831161022 72 151 0.0 0.0 0.00 0.00 0.00 89 1022.0
20260831160017 72 168 1.0 1.0 0.00 0.00 0.00 90 1022.2
20260831155012 73 163 1.0 2.0 0.00 0.00 0.00 89 1021.9
20260831154008 71 171 2.0 2.0 0.00 0.00 0.00 89 1022.2
20260831153006 70 179 0.0 1.0 0.00 0.00 0.00 91 1022.2
20260831152001 69 188 1.0 1.0 0.00 0.00 0.00 92 1022.3
20260831151001 70 167 0.0 1.0 0.00 0.00 0.00 91 1022.2
20260831145957 71 140 0.0 0.0 0.00 0.00 0.00 93 1022.1
20260831144954 70 149 2.0 2.0 0.00 0.00 0.00 94 1022.0
20260831143951 69 148 1.0 1.0 0.00 0.00 0.00 95 1022.2
20260831142947 69 156 0.0 0.0 0.00 0.00 0.00 95 1022.6
20260831141943 70 133 0.0 0.0 0.00 0.00 0.00 95 1022.5
20260831140938 69 156 0.0 0.0 0.00 0.00 0.00 94 1022.2
20260831135937 69 149 0.0 1.0 0.00 0.00 0.00 95 1022.2
20260831134937 69 172 0.0 0.0 0.00 0.00 0.00 95 1022.2
20260831133934 69 172 0.0 0.0 0.00 0.00 0.00 95 1022.3
20260831132929 68 172 0.0 0.0 0.00 0.00 0.00 95 1022.2
20260831131929 68 168 0.0 1.0 0.00 0.00 0.00 96 1022.0
20260831130926 67 180 0.0 0.0 0.00 0.00 0.00 99 1022.0
20260831125921 66 179 0.0 0.0 0.00 0.00 0.00 99 1021.9
20260831124917 66 179 0.0 1.0 0.00 0.00 0.00 99 1022.0
20260831123914 66 179 0.0 0.0 0.00 0.00 0.00 99 1022.2
20260831122913 66 179 0.0 0.0 0.00 0.00 0.00 99 1022.0
20260831121909 65 180 0.0 0.0 0.00 0.00 0.00 99 1022.3
20260831120907 65 176 0.0 0.0 0.00 0.00 0.00 99 1022.1
20260831115907 64 176 0.0 0.0 0.00 0.00 0.00 99 1022.1
20260831114903 64 176 0.0 0.0 0.00 0.00 0.00 99 1022.0
20260831113858 64 176 0.0 0.0 0.00 0.00 0.00 99 1021.9
20260831112853 64 176 0.0 0.0 0.00 0.00 0.00 99 1022.0
20260831111849 63 176 0.0 0.0 0.00 0.00 0.00 99 1022.0
20260831110846 63 176 0.0 0.0 0.00 0.00 0.00 99 1021.8
20260831105844 63 176 0.0 0.0 0.00 0.00 0.00 99 1021.5
20260831104842 63 176 0.0 0.0 0.00 0.00 0.00 99 1021.3
20260831103838 63 176 0.0 0.0 0.00 0.00 0.00 99 1021.5
20260831102834 63 174 0.0 0.0 0.00 0.00 0.00 99 1021.1
20260831101831 63 176 0.0 0.0 0.00 0.00 0.00 99 1021.2
20260831100827 63 176 0.0 0.0 0.00 0.00 0.00 99 1021.3
20260831095823 63 159 0.0 0.0 0.00 0.00 0.00 99 1021.1
20260831094819 63 157 0.0 0.0 0.00 0.00 0.00 99 1021.4
20260831093814 63 117 0.0 0.0 0.00 0.00 0.00 99 1021.2
20260831092811 63 117 0.0 0.0 0.00 0.00 0.00 99 1021.2
20260831091808 63 119 0.0 0.0 0.00 0.00 0.00 99 1021.2
20260831090804 63 182 0.0 0.0 0.00 0.00 0.00 99 1020.9
20260831085802 63 150 0.0 0.0 0.00 0.00 0.00 99 1021.0
20260831084757 63 206 1.0 1.0 0.00 0.00 0.00 99 1020.7
20260831083755 63 161 0.0 0.0 0.00 0.00 0.00 99 1020.8
20260831082755 64 130 0.0 0.0 0.00 0.00 0.00 99 1020.6
20260831081752 64 128 0.0 0.0 0.00 0.00 0.00 99 1021.0
20260831080749 64 163 0.0 0.0 0.00 0.00 0.00 99 1020.9
20260831075745 64 164 0.0 0.0 0.00 0.00 0.00 99 1020.8
20260831074740 64 164 0.0 0.0 0.00 0.00 0.00 99 1020.8
20260831073736 64 130 0.0 0.0 0.00 0.00 0.00 99 1020.9
20260831072735 64 130 0.0 0.0 0.00 0.00 0.00 99 1020.8
20260831071732 64 140 0.0 0.0 0.00 0.00 0.00 99 1020.8
20260831070732 64 141 0.0 0.0 0.00 0.00 0.00 99 1020.9
20260831065731 64 140 0.0 0.0 0.00 0.00 0.00 99 1020.9
20260831064730 64 140 0.0 0.0 0.00 0.00 0.00 99 1021.1
20260831063727 64 111 0.0 0.0 0.00 0.00 0.00 99 1021.3
20260831062727 64 113 0.0 0.0 0.00 0.00 0.00 99 1021.2
20260831061726 64 126 0.0 0.0 0.00 0.00 0.00 99 1021.1
20260831060724 65 127 0.0 0.0 0.00 0.00 0.00 99 1021.0
20260831055724 65 127 0.0 0.0 0.00 0.00 0.00 99 1021.1
20260831054724 65 126 0.0 0.0 0.00 0.00 0.00 99 1021.1
20260831053725 65 125 0.0 0.0 0.00 0.00 0.00 99 1021.2
20260831052723 65 147 0.0 0.0 0.00 0.00 0.00 99 1021.3
20260831051721 65 151 0.0 0.0 0.00 0.00 0.00 99 1021.5
20260831050720 65 124 0.0 0.0 0.00 0.00 0.00 99 1021.4
20260831045720 65 147 0.0 0.0 0.00 0.00 0.00 99 1021.2
20260831044715 66 173 0.0 0.0 0.00 0.00 0.00 99 1021.1
20260831043712 66 126 0.0 1.0 0.00 0.00 0.00 99 1021.4
20260831042712 66 181 0.0 0.0 0.00 0.00 0.00 99 1021.3
20260831041708 66 182 0.0 0.0 0.00 0.00 0.00 99 1021.1
20260831040703 67 182 0.0 0.0 0.00 0.00 0.00 99 1021.1
20260831035700 67 182 0.0 0.0 0.00 0.02 0.02 99 1021.3
20260831034700 66 182 0.0 0.0 0.00 0.02 0.02 99 1021.4
20260831033657 66 182 0.0 0.0 0.00 0.02 0.02 99 1021.1
20260831032657 67 182 0.0 0.0 0.00 0.02 0.02 99 1021.1
20260831031653 67 182 0.0 0.0 0.00 0.02 0.02 99 1021.1
20260831030651 67 182 0.0 0.0 0.00 0.02 0.02 99 1021.2
20260831025649 67 182 0.0 0.0 0.00 0.02 0.02 99 1021.4
20260831024647 67 182 0.0 0.0 0.00 0.02 0.02 99 1021.4
20260831023643 67 182 0.0 0.0 0.00 0.02 0.02 99 1021.2
20260831022638 68 182 0.0 0.0 0.00 0.02 0.02 99 1021.4
20260831021638 68 182 0.0 0.0 0.00 0.02 0.02 99 1021.5
20260831020636 68 182 0.0 0.0 0.00 0.02 0.02 99 1021.4
20260831015631 68 182 0.0 0.0 0.00 0.02 0.02 99 1021.5
20260831014631 68 182 0.0 0.0 0.00 0.02 0.02 99 1021.4
20260831013629 68 182 0.0 0.0 0.00 0.02 0.02 99 1021.2
20260831012629 68 182 0.0 0.0 0.00 0.02 0.02 99 1021.2
20260831011629 68 182 0.0 0.0 0.00 0.02 0.02 99 1021.3
20260831010627 69 182 0.0 0.0 0.00 0.02 0.02 99 1021.1
20260831005622 69 182 0.0 0.0 0.00 0.02 0.02 99 1021.2
20260831004619 69 182 0.0 0.0 0.07 0.02 0.02 99 1020.9
20260831003617 70 182 0.0 0.0 0.05 0.01 0.01 99 1020.9
20260831002616 70 182 0.0 0.0 0.00 0.00 0.00 99 1020.6
20260831001613 70 182 1.0 1.0 0.00 0.00 0.00 99 1020.6
20260831000611 70 182 0.0 1.0 0.00 0.00 0.00 99 1020.3
20260830235610 70 182 0.0 0.0 0.00 0.00 0.00 99 1020.4
20260830234605 71 182 0.0 1.0 0.00 0.00 0.00 99 1020.3